Location: ??????
(56.0120°N, 39.1740°E)
Time: 11:01:18
(UTC+00:00)

Cosmos 1346 Rocket - Pass Details

Date: 14 April 2026
Orbit: 472 x 485 km, 81.2° (Epoch: 10 May)

Event Time Altitude Azimuth Distance (km) Brightness Sun altitude
Rises 18:32:50 0° 345° (NNW) 2,544 7.3 -15.5°
Reaches altitude 10° 18:34:57 10° 346° (NNW) 1,658 6.2 -15.7°
Maximum altitude 18:38:34 89° 67° (ENE) 483 2.4 -16.0°
Enters shadow 18:40:05 33° 166° (SSE) 817 3.2 -16.2°
